Temp
11 11 11 11 10 11 10 10 11 11 11 11 11 11 11 12 11 10 8 7 7 7 7 6 9 10 9 9 9 9 9 9 8 8 8 8 7 8 8 8 8 8 8
11 11 11 11 11 12 11 11 12 11 11 11 10 10 11 11 11 10 9 7 8 8 7 7 9 9 9 9 8 8 8 8 8 8 8 8 7 7 7 7 7 7 8
11 11 12 12 12 13 12 12 11 11 12 11 11 10 10 10 11 11 10 8 8 8 8 8 7 8 8 8 8 8 8 8 8 8 8 7 7 7 7 7 7 7 7
11 11 12 12 12 12 12 12 12 12 12 12 11 11 11 10 10 10 11 10 8 7 8 8 8 8 8 8 8 8 8 8 8 7 7 7 7 7 7 7 6 6 6
10 10 11 12 12 12 12 12 12 12 12 12 11 11 11 11 10 10 10 10 10 9 9 9 9 8 8 8 8 8 8 8 8 7 7 7 7 7 6 6 6 5 6
10 11 11 11 11 11 11 11 11 11 12 12 12 11 11 11 11 10 10 10 9 9 9 9 9 8 7 7 8 8 8 8 7 7 7 6 6 6 6 5 5 5 5
10 12 12 11 11 11 11 11 11 11 11 12 12 12 11 10 10 10 10 10 10 9 9 9 8 9 8 9 8 8 7 7 7 7 6 6 6 5 5 5 5 4 4
11 11 11 11 11 11 11 10 10 11 11 11 12 12 12 11 10 10 10 10 10 10 9 9 8 8 8 8 8 8 7 7 5 5 4 4 5 5 5 5 4 4 4
9 11 10 10 11 11 11 10 10 11 11 11 11 12 13 14 13 12 12 10 10 9 9 9 8 8 8 8 8 8 7 7 7 5 4 4 4 4 4 4 4 4 4
11 11 10 10 11 11 11 10 10 10 11 12 10 11 12 12 13 12 11 11 10 10 10 9 9 9 8 8 8 8 7 7 7 7 6 5 4 4 4 3 3 3 2
10 9 10 10 10 10 10 11 10 10 10 11 12 11 10 11 11 11 12 11 10 10 9 11 10 9 9 8 8 7 7 7 7 7 6 6 5 5 4 4 3 3 3
10 9 10 10 10 10 10 10 10 10 10 11 11 11 10 10 11 11 11 11 11 10 9 10 9 9 9 9 7 7 7 7 7 7 6 6 6 5 4 4 3 3 3
9 10 10 10 10 10 11 11 11 10 11 11 11 10 11 11 10 11 11 11 11 10 10 10 9 9 9 8 8 7 7 7 7 7 6 6 6 5 5 5 4 4 3
11 11 10 10 11 11 11 11 11 10 10 11 11 10 10 11 10 11 10 10 9 8 9 9 9 9 9 8 8 8 6 6 6 7 6 6 6 5 5 4 4 4 3
11 11 11 11 11 11 11 11 11 10 10 10 11 11 11 11 10 10 10 9 9 8 8 8 9 10 10 8 8 7 6 6 6 6 5 6 5 4 4 3 3 3 2
10 10 11 11 11 11 11 11 11 11 10 10 10 10 10 10 10 10 9 9 9 9 8 8 7 7 8 8 7 7 6 6 5 5 5 5 4 4 3 3 3 2 1
10 10 10 10 10 10 10 10 10 10 10 10 10 10 10 9 10 10 9 9 9 7 7 8 8 7 7 7 7 6 5 5 4 4 4 4 4 3 3 2 2 1 1
10 10 10 11 10 10 10 10 10 9 9 9 10 9 9 10 9 9 9 10 9 9 8 7 7 7 7 6 5 5 5 4 4 4 3 2 3 2 2 2 1 2 2
10 10 10 10 10 9 9 9 9 9 9 9 9 9 9 9 9 9 9 9 9 10 9 7 7 6 5 5 4 4 3 3 3 2 1 1 1 1 2 2 2 2 2
10 10 10 10 10 9 9 9 9 10 10 9 9 9 9 9 10 9 9 9 9 9 8 7 6 6 5 4 4 3 3 2 2 1 0 -0 -0 0 2 2 2 1 1
10 10 10 10 10 9 10 9 9 9 10 9 9 9 9 9 9 9 9 9 9 8 8 7 5 4 4 3 3 3 2 1 0 -0 -1 -1 -1 -1 -0 0 1 1 1
10 10 10 10 9 9 10 10 9 9 9 9 9 9 8 8 9 9 9 8 7 8 7 6 4 4 3 3 2 1 0 -1 -2 -1 -1 -1 -2 -2 -2 -1 -2 -3 -3
10 10 10 10 10 9 9 10 9 9 9 9 9 9 9 9 9 8 8 8 7 7 5 4 3 3 3 1 0 -1 -2 -2 -2 -2 -2 -3 -3 -3 -2 -3 -3 -3 -3
10 10 10 9 10 10 9 9 9 9 8 8 8 8 8 9 8 8 7 6 4 4 3 2 2 1 -0 -1 -2 -2 -4 -4 -3 -3 -3 -4 -4 -4 -4 -4 -4 -5 -5
11 10 10 10 10 9 9 9 9 9 9 9 8 8 7 7 7 7 5 4 3 2 1 1 -0 -2 -2 -3 -4 -5 -4 -5 -5 -5 -5 -5 -5 -5 -5 -5 -6 -6 -6
10 10 9 9 9 9 9 9 9 9 9 8 8 7 6 5 5 4 3 2 2 0 -1 -1 -3 -3 -4 -6 -5 -4 -4 -5 -6 -7 -5 -6 -6 -7 -7 -7 -7 -7 -7
Height
1529 1533 1538 1540 1544 1549 1553 1555 1561 1563 1565 1569 1570 1573 1575 1577 1578 1578 1578 1578 1581 1581 1581 1583 1582 1582 1583 1585 1586 1586 1586 1586 1588 1588 1588 1589 1589 1589 1589 1589 1589 1589 1589
1530 1535 1539 1542 1546 1550 1554 1557 1561 1563 1566 1569 1571 1573 1576 1577 1579 1579 1579 1578 1579 1580 1582 1582 1583 1582 1584 1585 1586 1586 1586 1587 1588 1588 1588 1587 1588 1588 1588 1589 1588 1588 1588
1530 1535 1540 1542 1545 1550 1554 1558 1560 1563 1565 1569 1571 1572 1575 1576 1578 1580 1580 1580 1580 1580 1581 1582 1583 1583 1583 1585 1586 1586 1586 1586 1586 1587 1587 1586 1587 1587 1586 1586 1586 1586 1586
1528 1533 1539 1541 1545 1548 1553 1557 1559 1561 1565 1568 1569 1571 1574 1576 1577 1578 1581 1581 1580 1581 1581 1582 1582 1582 1582 1584 1585 1584 1584 1585 1585 1585 1585 1585 1585 1586 1585 1584 1585 1585 1585
1527 1531 1535 1540 1543 1547 1551 1555 1558 1560 1564 1566 1569 1571 1573 1575 1575 1576 1578 1579 1581 1580 1578 1580 1582 1582 1582 1582 1582 1583 1583 1582 1583 1583 1583 1582 1584 1584 1584 1583 1583 1583 1583
1525 1529 1533 1537 1542 1545 1550 1553 1557 1559 1562 1564 1566 1569 1571 1572 1573 1574 1575 1576 1578 1577 1578 1576 1578 1579 1578 1579 1579 1580 1580 1579 1580 1581 1581 1581 1582 1582 1582 1581 1581 1581 1581
1523 1525 1531 1535 1541 1544 1548 1552 1555 1557 1560 1562 1565 1567 1569 1569 1571 1571 1571 1573 1573 1575 1576 1577 1575 1575 1574 1574 1576 1576 1576 1576 1576 1577 1577 1577 1578 1579 1580 1579 1578 1578 1577
1519 1525 1529 1535 1540 1542 1546 1549 1551 1554 1557 1559 1561 1564 1566 1568 1566 1564 1567 1568 1569 1570 1569 1571 1573 1575 1574 1572 1572 1573 1572 1573 1573 1572 1572 1571 1573 1574 1574 1574 1575 1575 1573
1518 1522 1526 1534 1537 1539 1544 1546 1547 1550 1553 1555 1557 1559 1560 1558 1557 1557 1559 1563 1565 1565 1566 1568 1569 1570 1571 1571 1568 1568 1569 1569 1569 1569 1568 1568 1566 1566 1566 1567 1566 1567 1568
1513 1519 1526 1531 1533 1536 1540 1542 1544 1545 1548 1551 1553 1554 1554 1553 1555 1554 1557 1557 1559 1559 1561 1562 1564 1565 1566 1567 1568 1568 1564 1565 1565 1565 1566 1566 1565 1563 1562 1561 1561 1561 1560
1511 1516 1521 1525 1528 1532 1535 1538 1539 1540 1543 1546 1549 1550 1551 1552 1552 1552 1553 1556 1556 1556 1555 1557 1558 1559 1561 1562 1564 1562 1561 1560 1561 1561 1561 1560 1559 1559 1559 1558 1556 1557 1557
1508 1512 1516 1519 1522 1526 1529 1532 1535 1536 1538 1540 1542 1543 1545 1548 1548 1549 1549 1549 1549 1550 1548 1549 1551 1552 1551 1550 1554 1557 1555 1554 1554 1554 1553 1553 1553 1552 1552 1552 1551 1552 1552
1498 1503 1508 1513 1515 1519 1524 1527 1529 1531 1533 1534 1537 1538 1540 1542 1544 1544 1542 1543 1543 1543 1540 1540 1541 1542 1542 1543 1543 1546 1546 1546 1545 1545 1546 1545 1545 1544 1543 1543 1542 1541 1541
1492 1498 1502 1506 1509 1512 1516 1519 1521 1524 1526 1527 1529 1532 1533 1536 1537 1537 1536 1537 1535 1532 1529 1529 1530 1532 1532 1532 1532 1533 1535 1538 1538 1536 1536 1537 1537 1536 1534 1535 1534 1533 1532
1486 1491 1495 1498 1502 1506 1508 1512 1513 1516 1518 1518 1520 1523 1525 1526 1528 1527 1527 1528 1526 1524 1519 1517 1518 1518 1521 1522 1523 1525 1526 1526 1529 1529 1528 1527 1528 1529 1527 1525 1525 1525 1524
1481 1485 1487 1491 1495 1498 1501 1504 1506 1507 1510 1511 1512 1514 1515 1516 1517 1518 1518 1518 1517 1516 1508 1512 1508 1508 1508 1511 1513 1514 1516 1516 1518 1520 1520 1520 1520 1520 1519 1517 1516 1516 1515
1473 1478 1482 1485 1487 1490 1494 1496 1497 1499 1501 1502 1503 1505 1506 1507 1507 1508 1508 1508 1507 1507 1501 1500 1498 1497 1498 1502 1502 1506 1507 1509 1510 1512 1512 1512 1512 1511 1510 1508 1507 1507 1507
1467 1470 1474 1478 1479 1481 1484 1486 1488 1489 1491 1493 1495 1495 1495 1496 1496 1497 1497 1498 1496 1498 1497 1493 1491 1491 1491 1493 1495 1498 1500 1502 1503 1503 1503 1503 1502 1502 1501 1500 1499 1499 1499
1456 1460 1464 1465 1468 1471 1474 1476 1478 1480 1482 1483 1484 1485 1485 1484 1485 1487 1486 1486 1486 1486 1486 1485 1482 1483 1482 1485 1487 1488 1492 1495 1496 1495 1495 1495 1494 1493 1492 1491 1490 1489 1489
1444 1448 1452 1455 1458 1461 1462 1465 1468 1470 1471 1472 1473 1474 1475 1475 1472 1475 1476 1474 1475 1476 1477 1477 1474 1474 1476 1477 1479 1482 1484 1486 1488 1490 1490 1488 1487 1484 1484 1482 1482 1481 1480
1433 1436 1440 1442 1446 1449 1450 1453 1454 1456 1458 1459 1461 1464 1465 1466 1465 1465 1465 1464 1465 1467 1466 1466 1465 1466 1468 1468 1471 1474 1476 1478 1480 1482 1481 1481 1479 1478 1475 1474 1473 1473 1471
1425 1429 1429 1432 1435 1436 1437 1441 1445 1447 1448 1450 1451 1454 1456 1455 1456 1456 1455 1455 1456 1456 1456 1455 1456 1457 1459 1462 1466 1469 1470 1472 1474 1476 1475 1474 1473 1470 1468 1467 1467 1465 1463
1415 1418 1420 1422 1423 1427 1429 1430 1433 1437 1440 1441 1442 1444 1445 1447 1446 1446 1445 1444 1445 1444 1446 1447 1450 1453 1452 1456 1460 1461 1464 1466 1467 1469 1470 1467 1466 1463 1463 1462 1461 1457 1454
1403 1407 1411 1414 1416 1418 1421 1423 1426 1429 1430 1430 1430 1431 1432 1433 1433 1434 1435 1434 1436 1437 1436 1440 1444 1447 1449 1450 1455 1457 1460 1462 1462 1461 1462 1458 1459 1456 1455 1454 1452 1449 1446
1396 1401 1403 1406 1408 1410 1411 1415 1419 1419 1419 1420 1420 1421 1421 1422 1422 1423 1427 1429 1430 1431 1435 1438 1438 1445 1448 1446 1449 1452 1456 1457 1456 1456 1456 1453 1452 1449 1448 1445 1443 1440 1436
1387 1387 1391 1394 1396 1400 1403 1406 1408 1409 1411 1411 1412 1412 1413 1414 1414 1416 1418 1421 1425 1427 1433 1432 1441 1440 1443 1445 1445 1448 1450 1450 1450 1449 1449 1447 1446 1445 1437 1435 1435 1432 1429
Wind_Speed
31 28 28 27 25 20 20 19 14 15 15 14 13 14 13 13 12 12 12 16 14 12 12 11 10 10 10 9 9 9 9 9 8 6 5 4 4 4 5 5 5 5 6
28 26 27 25 23 21 19 17 15 15 15 14 14 14 13 13 12 11 11 13 11 11 10 9 7 7 7 6 6 6 5 6 6 5 4 4 3 3 4 6 5 5 5
30 26 27 26 23 21 19 17 16 15 15 15 14 14 12 13 12 12 10 11 12 12 8 6 3 2 2 2 2 2 2 3 4 3 3 3 3 4 5 5 6 6 6
31 28 24 24 22 20 20 18 17 16 16 16 15 13 12 11 12 13 11 10 10 11 11 11 10 7 4 3 3 3 2 1 2 3 3 5 5 4 5 5 6 6 7
33 28 26 22 23 21 20 18 17 17 17 16 15 13 13 12 12 11 12 13 13 13 13 8 11 13 11 9 7 8 7 6 5 4 5 5 6 7 6 6 6 7 8
33 28 24 21 22 19 18 17 17 17 16 16 15 14 13 13 12 13 13 13 14 15 14 16 16 18 18 15 14 14 13 11 10 9 8 8 8 8 9 9 8 8 9
30 25 24 22 21 20 18 19 18 17 16 16 15 13 13 14 15 14 14 14 15 15 15 16 18 15 15 13 17 19 18 17 16 14 12 11 12 12 13 13 13 13 13
34 33 27 23 25 19 19 20 19 17 16 17 17 14 13 14 17 20 18 18 18 18 17 18 20 21 21 20 21 22 22 21 21 21 19 16 15 16 16 18 18 18 18
28 33 26 27 29 23 23 24 21 19 17 17 19 14 13 16 16 18 18 21 21 21 19 19 21 20 19 20 21 24 25 24 23 22 24 23 23 23 22 22 22 23 23
33 37 31 26 24 28 24 24 22 21 18 18 15 25 22 14 7 8 12 14 20 21 20 22 21 19 20 22 25 25 28 25 24 24 24 24 26 26 26 27 27 27 29
39 34 31 29 27 27 27 25 25 25 24 22 19 16 19 20 19 16 16 14 16 19 24 24 22 22 19 23 26 27 28 34 32 27 26 28 28 29 30 30 29 30 31
40 40 34 33 34 33 30 31 29 28 27 24 24 23 21 17 17 20 20 20 21 21 23 23 24 28 28 31 34 31 30 33 30 30 30 31 31 33 35 35 33 32 32
41 39 38 35 36 37 37 32 30 32 29 27 26 26 26 25 20 23 20 21 24 24 30 35 33 33 30 31 34 34 36 38 34 32 32 32 34 33 35 38 38 40 39
54 45 40 41 43 41 40 37 36 33 35 31 31 30 26 26 24 24 24 23 22 24 33 34 29 32 37 32 38 43 40 36 35 35 32 32 33 31 31 33 36 38 38
59 54 49 46 45 46 45 42 40 38 33 32 36 35 35 32 30 30 30 28 30 25 29 33 35 35 32 32 33 38 39 36 36 36 33 31 32 32 33 35 37 39 41
53 48 54 51 49 48 48 45 45 44 41 39 38 38 38 37 34 34 35 34 34 37 41 33 35 42 45 39 40 38 39 38 35 34 30 30 33 34 34 33 34 35 37
47 47 45 48 49 49 47 43 46 47 44 44 44 40 39 38 39 40 40 35 34 37 41 39 36 34 37 38 37 34 36 35 31 29 30 31 32 33 31 32 31 32 34
44 43 47 44 45 47 46 46 45 45 45 45 44 43 45 46 43 44 39 35 28 33 30 37 38 39 41 34 33 32 33 31 30 28 27 28 32 30 31 30 30 31 32
47 46 44 44 48 46 44 46 46 46 45 45 45 45 44 46 44 44 42 42 37 36 37 40 42 40 35 33 33 32 31 30 28 25 26 30 34 32 30 30 30 31 32
48 49 48 48 49 48 47 48 46 46 46 46 48 48 46 43 43 43 44 44 40 36 37 40 39 35 32 31 31 32 30 29 27 19 20 24 28 30 29 30 31 30 32
48 46 46 48 48 47 49 47 45 46 47 51 47 44 46 42 42 39 44 40 37 37 37 38 36 36 31 32 29 28 28 25 23 22 26 25 21 20 23 25 30 30 31
44 44 44 44 45 46 47 46 45 42 45 42 40 40 41 38 40 44 44 37 37 39 37 37 36 36 29 28 27 24 23 21 18 18 18 19 19 22 27 27 23 26 32
41 43 44 44 44 42 42 43 43 43 40 40 43 44 44 43 42 39 41 41 38 35 30 30 31 30 27 23 23 21 20 19 19 17 19 22 21 27 26 23 23 30 36
42 41 40 39 38 38 39 39 38 38 38 41 47 47 44 39 37 37 37 35 31 29 28 24 24 26 22 21 19 17 15 18 21 23 22 24 19 25 26 26 30 32 36
37 36 33 33 35 36 38 38 37 39 40 41 43 43 38 34 32 31 32 29 27 24 24 22 22 18 15 14 11 12 16 15 18 15 16 21 21 26 22 26 31 22 24
34 38 35 36 35 34 35 34 34 36 39 39 38 35 32 29 30 28 26 27 25 22 18 17 14 12 11 9 10 15 16 18 16 14 15 17 15 17 26 21 19 20 27
Wind_Direction
174 170 172 167 163 159 161 159 161 165 160 164 161 151 149 148 144 147 156 157 162 156 146 145 124 107 97 86 80 72 65 61 64 64 64 64 62 61 56 46 35 30 24
174 172 167 169 166 171 170 166 176 168 164 167 163 159 155 151 149 152 171 163 167 154 162 165 127 108 92 84 79 71 65 53 53 44 28 25 37 30 27 19 17 17 8
170 175 172 173 170 176 175 174 176 171 167 171 170 165 163 161 161 159 172 185 177 178 190 200 216 153 111 117 103 91 68 36 28 26 7 359 346 355 1 2 356 355 350
173 172 174 173 173 175 178 180 175 176 178 178 179 177 174 175 177 173 171 194 203 205 203 214 231 243 236 231 239 239 247 289 325 326 344 328 314 314 332 337 337 340 342
183 169 170 173 169 175 176 180 179 183 186 183 188 184 185 191 192 188 193 194 207 211 250 265 248 243 249 252 252 254 250 260 279 285 291 285 291 301 303 312 321 322 321
176 173 167 174 170 174 179 184 185 188 191 187 191 194 199 201 208 204 206 211 215 211 221 246 257 252 238 243 251 253 252 252 260 268 276 272 274 280 285 290 295 302 311
183 186 187 195 178 187 185 191 189 188 192 192 191 199 210 211 214 217 220 221 220 226 223 219 245 259 255 258 262 255 249 252 254 257 265 269 272 274 278 283 287 291 294
184 188 187 202 192 188 195 200 191 192 192 196 194 202 213 225 233 229 221 227 224 224 229 228 228 230 246 260 262 267 251 248 241 252 250 265 271 273 275 278 279 283 290
197 191 185 216 206 193 206 210 199 195 195 204 199 213 218 233 223 228 243 223 232 238 232 233 237 235 236 247 265 266 261 255 250 245 249 260 272 278 279 279 280 281 285
200 202 205 205 207 202 210 215 210 204 199 212 226 216 233 264 269 182 209 245 228 236 245 229 231 242 243 245 242 247 267 266 259 254 253 255 262 266 272 274 273 278 284
213 209 208 215 210 212 211 215 215 215 215 211 221 232 242 249 254 259 259 241 234 233 240 248 244 227 242 255 251 252 249 257 261 257 256 256 258 258 258 262 267 270 273
214 209 209 217 218 220 218 221 221 225 220 228 238 228 232 238 241 245 251 255 258 257 241 256 256 259 256 252 248 261 249 260 259 257 256 257 263 265 262 257 257 260 266
213 214 211 216 225 228 231 227 233 232 232 236 239 247 250 246 249 254 258 263 263 255 254 271 276 270 263 257 263 255 254 252 254 255 257 258 267 270 266 267 266 266 264
219 218 220 222 229 231 232 230 235 237 239 240 246 249 247 254 244 251 257 260 258 260 266 269 277 271 273 263 269 256 254 255 254 253 253 263 266 268 267 269 271 270 268
219 221 226 230 234 236 239 232 233 234 237 241 246 249 254 256 254 253 250 249 260 258 264 268 269 270 280 278 275 261 253 255 255 254 257 260 266 268 268 270 270 270 271
221 226 231 232 234 237 237 239 241 245 245 246 248 252 256 256 256 253 251 259 270 270 271 267 270 275 274 265 277 260 252 248 255 253 255 267 268 270 271 271 273 270 267
225 226 228 233 233 233 237 237 242 246 246 249 250 249 251 253 255 251 259 263 276 282 265 277 277 270 262 263 264 251 247 249 251 252 265 264 270 273 272 274 271 270 272
223 227 226 229 232 234 236 237 239 241 245 246 248 250 252 258 250 254 255 264 279 274 264 270 272 271 269 263 255 245 241 245 246 262 262 265 274 273 274 273 271 272 274
227 229 228 230 232 234 238 239 240 242 245 250 251 252 252 250 249 256 257 264 262 253 262 267 263 264 257 250 240 236 238 247 256 258 257 264 271 270 269 271 271 272 273
229 230 232 233 235 237 238 238 239 243 248 250 254 251 254 244 256 255 261 265 257 256 263 265 259 255 250 242 234 237 242 250 254 244 256 258 267 274 273 273 272 273 275
227 229 230 233 236 236 238 236 238 239 241 248 252 251 247 246 256 262 267 263 250 255 260 257 249 244 237 230 234 238 245 250 249 239 252 262 264 273 276 276 280 279 278
230 227 229 231 234 236 239 240 239 236 242 248 245 247 248 247 262 265 261 255 253 258 257 251 244 236 234 235 239 241 246 244 253 262 263 260 254 264 274 281 281 269 274
227 230 230 230 233 234 239 242 240 238 238 242 245 245 252 263 264 254 249 252 251 253 245 245 240 232 229 235 235 237 243 253 261 255 261 265 260 270 277 281 270 266 275
225 227 230 232 233 237 239 242 247 249 248 249 252 258 262 257 253 251 249 243 240 237 228 226 229 235 226 225 233 242 252 252 250 256 267 274 276 272 275 262 266 272 283
221 224 228 230 233 236 237 240 241 242 247 250 252 253 252 250 250 250 241 239 227 217 220 225 222 225 234 242 255 269 269 268 274 269 262 268 271 275 277 273 281 285 274
214 215 218 225 229 236 243 244 242 245 249 249 246 242 241 240 237 233 221 216 211 208 215 210 233 245 269 277 273 269 260 259 266 283 290 266 268 276 291 284 271 261 277